Content
SEND FEEDBACK

Daily
Averages
Monthly
Summary
Guadeloupe

BASSE-TERRE, GUADELOUPE


Home > Caribbean > Guadeloupe
Elevation: 26 feet     Latitude: 16 16N     Longitude: 061 31W

WEATHER
 
SELECT A DAY
Number of Records: 192,865;   Date Range: 6/30/96 - 8/10/14
 
SHARE

PRINT THIS DATA

[ ← Previous Day ]
WEATHER ALMANAC - FEBRUARY 5, 2013
[ Next Day → ]
[ °C ]   °F
Weather ElementAverageHighLow
Temperature75 °F82.4 °F (12:30 pm)68 °F (12:30 am)
Dewpoint65.8 °F69.8 °F (8:30 am)62.6 °F (12:30 am)
Humidity73.6 %94 % (6:30 am)43 % (2:00 pm)
Barometer29.98 in30.04 in (10:00 am)29.92 in (4:30 am)
Wind Speed6.9 mph16.1 mph (12:30 pm)
Weather ElementAverage
Visibility6.8 mi
Wind DirectionENE (72.2 °)

Weather ElementTotal
Precipitation---
Cooling Degree Days10.2 (Base 65)
Growing Degree Days25.2 (Base 50)
Averaged from 52 records on February 5, 2013
WEATHER CONDITIONS BREAKOUT
WIND DIRECTION BREAKOUT
WEATHER BY HOUR - FEBRUARY 5, 2013
[ °C ]   °F
Local TimeTemperatureDewpointHumidityBarometerVisibilityWind DirectionWind SpeedGust SpeedPrecipitationEventsConditions
12:30 AM68.0 °F62.6 °F83 %29.95 in6.2 miCalmPartly Cloudy
1:00 AM68.0 °F64.4 °F88 %29.95 in6.2 miCalmPartly Cloudy
1:30 AM69.8 °F64.4 °F83 %29.95 in6.2 miCalmPartly Cloudy
2:00 AM70.0 °F66.0 °F82 %29.96 in16.0 miNNE (30°)4.6 mphScattered Clouds
2:00 AM69.8 °F66.2 °F88 %29.95 in6.2 miNNE (20°)3.5 mphPartly Cloudy
2:30 AM71.6 °F64.4 °F78 %29.95 in6.2 miNNE (30°)2.3 mphPartly Cloudy
3:00 AM69.8 °F64.4 °F83 %29.95 in6.2 miCalmScattered Clouds
3:30 AM69.8 °F64.4 °F83 %29.95 in6.2 miCalmScattered Clouds
4:08 AM68.0 °F64.4 °F88 %29.95 in6.2 miCalmScattered Clouds
4:30 AM69.8 °F66.2 °F88 %29.92 in6.2 miVariable2.3 mphMostly Cloudy
5:00 AM71.6 °F64.4 °F78 %29.95 in6.2 miSE (130°)2.3 mphMostly Cloudy
5:30 AM71.6 °F66.2 °F83 %29.95 in6.2 miSE (130°)9.2 mphMostly Cloudy
6:00 AM69.8 °F66.2 °F88 %29.95 in6.2 miSE (140°)4.6 mphMostly Cloudy
6:30 AM68.0 °F66.2 °F94 %29.98 in6.2 miCalmMostly Cloudy
7:00 AM69.8 °F68.0 °F94 %29.98 in6.2 miENE (60°)11.5 mphRainLight Rain Showers
7:06 AM69.8 °F68.0 °F94 %29.98 in6.2 miESE (110°)9.2 mphMostly Cloudy
7:30 AM71.6 °F68.0 °F88 %29.98 in6.2 miEast (90°)3.5 mphScattered Clouds
8:00 AM71.0 °F69.0 °F92 %30.01 in2.0 miESE (110°)5.8 mphRainLight Rain Showers
8:00 AM71.6 °F68.0 °F88 %30.01 in6.2 miEast (100°)4.6 mphRainLight Rain Showers
8:30 AM73.4 °F69.8 °F88 %30.01 in6.2 miEast (80°)4.6 mphMostly Cloudy
9:00 AM78.8 °F69.8 °F74 %30.01 in6.2 miEast (90°)6.9 mphScattered Clouds
9:30 AM80.6 °F66.2 °F61 %30.01 in6.2 miEast (100°)11.5 mphScattered Clouds
10:00 AM78.8 °F66.2 °F65 %30.04 in6.2 miEast (80°)11.5 mphScattered Clouds
10:30 AM78.8 °F66.2 °F65 %30.01 in6.2 miESE (110°)15.0 mphScattered Clouds
11:00 AM80.6 °F69.8 °F70 %30.01 in6.2 miSE (130°)15.0 mphScattered Clouds
11:30 AM80.6 °F68.0 °F65 %30.01 in6.2 miSE (140°)11.5 mphScattered Clouds
12:00 PM80.6 °F68.0 °F65 %30.01 in6.2 miSE (130°)13.8 mphScattered Clouds
12:30 PM82.4 °F68.0 °F62 %29.98 in6.2 miESE (110°)16.1 mphScattered Clouds
1:00 PM78.8 °F68.0 °F69 %29.98 in6.2 miENE (70°)12.7 mphScattered Clouds
1:30 PM82.4 °F64.4 °F54 %29.98 in6.2 miESE (110°)13.8 mphScattered Clouds
2:00 PM82.0 °F63.0 °F43 %29.96 in19.0 miEast (80°)12.7 mphPartly Cloudy
2:00 PM82.4 °F64.4 °F54 %29.95 in6.2 miEast (90°)12.7 mphScattered Clouds
2:30 PM80.6 °F64.4 °F58 %29.95 in6.2 miEast (90°)13.8 mphScattered Clouds
3:00 PM82.4 °F64.4 °F54 %29.95 in6.2 miESE (120°)12.7 mphScattered Clouds
3:30 PM80.6 °F62.6 °F54 %29.95 in6.2 miEast (80°)12.7 mphScattered Clouds
4:00 PM80.6 °F62.6 °F54 %29.95 in6.2 miEast (90°)12.7 mphScattered Clouds
4:30 PM78.8 °F64.4 °F61 %29.95 in6.2 miEast (100°)11.5 mphScattered Clouds
5:00 PM78.8 °F64.4 °F61 %29.95 in6.2 miEast (80°)9.2 mphScattered Clouds
5:30 PM78.8 °F64.4 °F61 %29.95 in6.2 miEast (80°)10.4 mphScattered Clouds
6:00 PM77.0 °F64.4 °F65 %29.98 in6.2 miENE (70°)6.9 mphPartly Cloudy
6:30 PM77.0 °F62.6 °F61 %29.98 in6.2 miEast (80°)4.6 mphPartly Cloudy
7:00 PM75.2 °F64.4 °F69 %29.98 in6.2 miESE (110°)3.5 mphPartly Cloudy
7:30 PM73.4 °F64.4 °F73 %29.98 in6.2 miESE (110°)4.6 mphPartly Cloudy
8:00 PM73.0 °F65.0 °F68 %30.00 in19.0 miCalmScattered Clouds
8:00 PM73.4 °F64.4 °F73 %29.98 in6.2 miCalmPartly Cloudy
8:30 PM71.6 °F64.4 °F78 %30.01 in6.2 miCalmPartly Cloudy
9:00 PM73.4 °F66.2 °F78 %30.01 in6.2 miVariable1.2 mphMostly Cloudy
9:30 PM75.2 °F68.0 °F78 %30.01 in6.2 miENE (70°)4.6 mphMostly Cloudy
10:00 PM75.2 °F68.0 °F78 %30.01 in6.2 miEast (80°)6.9 mphMostly Cloudy
10:45 PM75.2 °F66.2 °F73 %30.01 in6.2 miEast (80°)5.8 mphMostly Cloudy
11:00 PM75.2 °F66.2 °F73 %30.01 in6.2 miEast (80°)6.9 mphMostly Cloudy
11:30 PM73.4 °F66.2 °F78 %30.01 in6.2 miEast (90°)8.1 mphMostly Cloudy
Hourly data recorded from TFFR, located miles away from Basse-Terre, Guadeloupe







STORIES FROM OUR PARTNERS